Regional Weather Roundup
Issued by NWS

Home | Current Version | Previous Version | Text Only | Print | Product List | Glossary On
Versions: 1 2 3 4 5 6 7 8 9 10 11 12 13 14 15 16 17 18 19 20 21 22 23 24 25 26 27 28 29 30 31 32 33 34 35 36 37 38 39 40 41 42 43 44 45 46 47 48 49 50
000
ASUS43 KTOP 200859
RWRKS

WEATHER ROUNDUP FOR KANSAS
NATIONAL WEATHER SERVICE GOODLAND KS
400 AM CDT SUN AUG 20 2017

NOTE:  "FAIR" INDICATES FEW OR NO CLOUDS BELOW 12,000 FEET WITH NO
SIGNIFICANT WEATHER AND/OR OBSTRUCTIONS TO VISIBILITY.

KSZ001>006-013>018-027>032-041>047-201000-
NORTHWEST KANSAS

CITY           SKY/WX    TMP DP  RH WIND       PRES   REMARKS
GOODLAND       CLEAR     71  50  47 S15       29.93S
HAYS           CLOUDY    73  65  75 S7        29.90R
HILL CITY      CLEAR     71  64  78 W6        29.89S
RUSSELL        CLEAR     75  66  73 SW12      29.87S
$$

KSZ061>065-074>080-084>089-201000-
SOUTHWEST KANSAS

CITY           SKY/WX    TMP DP  RH WIND       PRES   REMARKS
DODGE CITY     CLEAR     73  65  75 SW10      29.95S
ELKHART          N/A     68  60  75 S6          N/A
GARDEN CITY    PTCLDY    70  64  81 S8        29.95S
GREAT BEND     PTCLDY    74  68  81 S10       29.90F
LIBERAL        PTCLDY    71  66  84 S10       29.98F
$$

KSZ066>073-081>083-090>101-201000-
SOUTHEAST KANSAS

CITY           SKY/WX    TMP DP  RH WIND       PRES   REMARKS
CHANUTE        CLOUDY    71  63  75 E5        29.95S
COFFEYVILLE      N/A     80  76  87 W5        29.96R
HUTCHINSON     PTCLDY    76  69  79 S3        29.91R
MEDICINE LODGE   N/A     73  68  84 S7        29.91F
NEWTON         CLEAR     76  70  82 S7        29.93R
PARSONS        CLOUDY    76  71  85 SW3       29.97S
WICHITA INTL   PTCLDY    76  70  82 S3        29.92R
WICHITA JABRA  CLEAR     77  71  82 S8        29.92R
WINFIELD       CLEAR     76  70  82 S8        29.94R
$$

KSZ007>012-019>026-033>040-048>060-102>105-201000-
NORTHEAST KANSAS

CITY           SKY/WX    TMP DP  RH WIND       PRES   REMARKS
CONCORDIA      LGT RAIN  69  66  90 NE18G26   29.96R
EMPORIA        MOCLDY    78  74  87 S14       29.95R
LAWRENCE       PTCLDY    79  76  90 S10       29.90F
MANHATTAN      PTCLDY    80  75  84 N10       29.93R
OLATHE IND     MOCLDY    77  73  87 S8        29.94S
OLATHE EXE     PTCLDY    77  74  90 S8        29.93F
SALINA         CLOUDY    79  69  71 S8        29.88S
TOPEKA BILLARD CLOUDY    80  77  90 SW6       29.90S
TOPEKA FORBES  CLOUDY    81  77  88 S9        29.91S
$$




USA.gov is the U.S. government's official web portal to all federal, state and local government web resources and services.